Theta_e
282 283 282 282 281 279 277 278 280 279 279 282 282 280 280 279 277 277 278 282 282 282 281 281 282 283 284 285 285 285 285 285 285 285 285 285 285 286 286 286 286 286 286 286
281 281 282 281 283 281 280 278 278 278 280 284 282 278 278 278 277 277 278 282 283 283 282 282 283 284 285 285 285 285 285 285 286 285 285 284 285 285 285 285 285 285 285 285
278 280 281 280 281 281 279 279 282 279 285 280 279 280 280 277 279 279 279 281 283 284 283 283 283 285 284 285 285 285 285 286 286 285 285 284 284 284 284 284 283 284 284 284
277 279 276 284 282 283 283 283 282 282 283 282 282 281 280 280 280 279 280 281 283 284 284 283 284 285 285 285 285 285 285 285 286 285 284 283 283 283 283 283 283 283 283 284
278 277 282 285 281 282 282 285 286 285 285 282 279 278 280 280 280 281 281 282 284 285 284 283 284 285 284 284 284 285 285 285 286 286 284 283 282 281 282 282 282 282 283 283
274 276 278 284 283 284 283 282 285 287 284 280 280 280 283 280 281 279 280 282 283 284 284 283 284 284 283 284 283 283 285 286 286 286 284 283 282 282 282 282 283 285 284 284
276 275 281 286 284 285 280 285 284 285 282 279 281 285 282 279 279 280 280 283 284 284 284 284 283 283 283 283 283 285 286 286 286 286 284 284 283 282 282 282 283 283 284 284
276 275 280 284 284 284 288 287 285 284 282 282 280 281 279 279 278 280 281 283 284 284 283 283 283 283 282 282 284 285 286 286 286 285 285 286 283 283 283 282 282 282 282 283
283 284 288 285 286 287 286 287 286 284 284 283 282 281 280 279 279 281 282 284 284 284 283 283 283 283 282 283 284 285 285 285 285 284 285 285 283 283 283 282 282 282 283 283
283 287 287 288 289 286 287 288 286 285 285 283 282 282 280 279 280 281 283 283 284 283 283 283 283 283 284 284 285 285 284 284 284 283 285 285 285 284 283 283 282 283 284 284
284 288 289 290 290 291 290 287 287 285 286 284 283 281 281 280 280 282 283 284 284 284 284 284 284 284 284 284 285 284 284 285 284 284 284 283 284 284 284 285 286 284 285 286
285 291 290 291 288 289 289 289 288 286 284 284 284 283 281 281 282 282 283 283 284 284 284 284 284 284 284 285 285 284 283 284 284 284 284 284 283 284 290 292 294 295 295 292
294 289 290 291 290 289 290 290 289 287 287 285 283 283 282 281 282 285 283 283 284 284 285 284 284 284 285 285 285 284 283 284 284 287 284 283 283 283 282 286 291 292 293 294
291 289 290 291 292 289 290 289 290 287 286 286 284 282 282 282 283 283 283 284 284 284 284 284 285 285 286 286 285 285 284 289 284 284 283 283 282 283 283 282 282 283 288 290
298 296 294 297 289 290 289 287 287 287 285 283 283 283 282 281 282 283 284 283 284 284 284 284 284 285 286 286 286 285 284 284 284 283 283 284 283 283 283 283 282 282 282 285
300 298 295 291 292 292 288 287 287 287 284 284 283 282 283 283 283 283 283 284 283 283 284 284 285 285 287 287 286 285 285 289 288 284 284 284 283 283 282 282 282 281 281 281
295 294 293 288 289 289 288 290 290 291 286 284 285 283 282 282 281 282 283 284 285 284 285 285 285 285 287 287 286 286 285 285 289 285 284 283 283 282 282 281 281 281 281 283
297 296 296 294 295 292 288 288 288 287 287 287 284 282 282 282 283 283 283 283 282 283 284 285 286 286 287 287 287 286 285 284 284 284 284 283 283 282 281 281 281 281 281 283
292 294 296 295 293 292 290 289 288 289 288 284 283 283 283 283 284 283 283 283 282 282 283 285 290 289 286 288 288 287 285 284 284 284 283 285 283 281 281 281 280 280 281 282
287 288 291 293 295 294 293 291 292 288 287 285 284 283 282 283 283 283 283 283 284 285 285 286 288 287 287 288 292 287 286 286 286 283 283 281 281 280 280 282 281 281 282 282
286 286 287 289 291 292 291 293 288 287 286 285 284 284 284 284 283 284 282 282 283 286 285 289 287 287 287 288 291 289 286 285 286 284 282 281 281 281 282 283 283 283 282 282
286 285 286 287 289 290 290 289 288 288 285 284 285 284 283 282 283 283 284 284 284 290 287 287 287 289 288 291 289 289 287 286 285 284 283 284 284 284 283 283 283 282 282 282
287 286 286 286 286 287 289 287 285 285 284 284 283 283 283 283 284 282 281 283 285 289 286 287 289 292 292 290 289 288 287 286 285 285 285 285 284 284 283 282 282 282 283 283
289 288 287 286 285 285 285 285 284 284 284 283 283 284 283 282 282 284 284 287 288 290 286 287 290 293 292 290 289 287 286 286 286 286 285 286 284 283 283 283 282 283 283 284
291 291 287 285 284 284 284 282 282 281 281 281 282 283 284 284 283 283 284 286 290 289 286 291 292 293 290 289 288 287 286 285 286 286 285 284 284 283 283 283 283 283 283 284
291 291 290 287 285 284 283 282 281 281 280 280 280 282 282 283 284 284 285 287 288 288 286 289 290 290 289 289 288 287 286 286 287 286 285 284 283 283 283 283 283 283 283 283
292 293 291 290 288 286 284 283 281 281 282 281 281 282 282 283 284 284 286 286 287 286 286 288 289 290 289 289 287 286 286 286 287 285 285 284 283 283 283 283 283 284 284 284
Wind_Speed
6 7 5 5 6 10 11 7 9 5 11 7 9 13 14 12 8 9 10 10 10 9 7 7 6 6 6 6 5 4 4 4 5 5 5 5 6 6 5 6 5 6 6 7
5 1 5 6 10 12 11 4 13 3 16 10 4 5 8 12 12 12 12 12 11 10 8 8 8 7 6 6 6 3 3 4 4 5 5 6 6 6 6 6 6 6 6 6
6 4 6 8 11 13 7 6 10 11 14 6 5 8 10 11 16 17 15 14 13 13 11 9 9 7 7 6 3 4 4 4 4 5 5 6 6 6 6 6 5 6 6 6
4 4 3 8 2 5 12 8 17 8 7 7 5 5 6 9 16 16 14 13 12 10 9 8 7 7 5 5 5 5 4 4 4 4 5 5 5 5 5 4 5 4 5 6
3 4 9 5 4 7 8 11 21 23 11 6 3 1 8 11 12 18 16 13 11 10 7 7 8 7 6 6 6 4 5 4 4 4 5 5 5 5 4 4 4 4 4 6
2 4 6 6 1 4 4 9 3 16 8 9 7 1 7 9 13 10 10 10 10 10 7 8 7 7 7 7 6 6 6 5 4 4 4 5 5 5 3 3 4 4 5 5
2 4 11 7 5 4 2 10 1 7 7 10 8 7 1 5 7 9 9 11 9 10 12 10 8 7 7 6 8 6 5 5 5 5 6 6 5 3 3 4 5 5 5 6
3 2 10 7 5 8 6 3 1 4 7 12 4 4 2 5 7 10 11 9 11 10 9 8 8 8 7 8 6 5 5 5 6 6 4 4 5 4 4 4 5 5 5 5
12 10 3 8 8 5 2 3 3 3 6 8 8 7 6 6 8 10 11 10 8 11 9 7 8 9 8 6 6 6 5 6 6 5 5 5 4 5 3 3 3 5 4 4
2 6 10 11 9 8 6 8 3 5 6 8 9 10 8 7 7 9 9 10 9 9 10 10 8 8 8 6 6 5 6 6 5 5 5 4 4 4 3 4 4 4 4 4
6 10 9 10 9 9 8 8 7 4 7 10 8 8 9 9 10 10 10 9 10 11 10 10 9 9 7 7 6 6 5 5 5 4 4 5 4 4 4 4 5 4 4 4
7 8 3 8 3 2 4 8 10 10 6 6 10 10 9 9 10 11 11 10 10 10 9 9 9 9 8 7 7 6 5 4 4 4 4 3 3 5 7 10 11 11 10 6
11 2 6 8 9 5 5 6 6 11 10 9 7 8 10 7 10 13 9 11 13 14 11 9 9 9 8 8 8 7 6 5 4 5 3 3 3 3 4 5 7 7 8 10
8 3 9 9 10 3 7 6 4 5 7 7 7 5 7 7 8 11 14 14 11 10 10 10 10 10 9 8 8 7 6 11 4 4 3 3 3 3 3 3 4 4 6 9
22 16 17 18 5 8 5 4 6 8 6 6 7 9 10 11 12 14 10 10 10 10 10 10 10 10 9 8 9 7 5 4 4 3 3 4 3 3 3 4 3 3 3 5
21 19 17 16 17 15 10 8 9 8 7 7 9 12 12 10 9 9 9 12 14 14 12 11 11 9 10 9 8 6 5 10 7 3 3 3 2 3 3 3 3 2 2 3
20 23 15 9 13 13 13 12 13 12 6 9 15 9 10 9 7 10 11 12 12 10 12 12 11 9 10 10 9 6 4 4 7 3 3 3 3 3 3 2 3 2 2 3
20 21 18 12 14 11 9 11 9 9 12 11 8 10 12 14 17 14 12 11 7 7 10 11 10 10 10 10 9 6 5 4 4 3 3 3 3 2 1 1 1 1 2 3
14 17 19 19 15 12 9 9 12 14 9 10 11 15 15 14 13 11 12 13 13 13 12 10 18 15 11 12 11 6 6 5 4 3 3 4 2 2 1 1 0 1 2 3
14 15 15 15 15 15 15 14 13 10 10 11 11 10 13 14 13 13 14 17 15 8 11 13 14 11 11 13 17 6 6 6 5 4 4 3 3 3 2 2 1 0 1 2
14 13 15 14 13 10 12 13 8 11 9 12 15 17 16 11 13 13 13 11 11 11 12 20 13 9 8 11 12 7 7 6 5 5 4 4 4 4 3 3 1 1 1 1
14 14 15 14 13 12 8 8 8 8 9 12 12 8 11 12 12 12 11 10 7 21 11 10 10 17 11 18 7 7 7 7 6 5 5 5 4 3 3 3 2 1 0 0
15 15 15 14 13 12 9 7 7 8 9 10 11 11 12 9 10 12 11 9 10 18 10 10 17 24 23 11 8 8 8 8 7 6 5 5 4 4 4 3 3 3 2 1
14 16 16 14 12 7 8 7 5 5 5 6 7 8 10 8 5 5 3 18 20 22 12 13 19 26 22 9 9 8 7 7 6 6 6 8 5 4 3 4 4 2 3 2
13 14 13 13 11 9 9 6 4 3 1 2 5 6 7 5 5 6 7 9 21 18 11 22 26 27 11 10 10 9 8 7 7 6 6 6 6 5 4 4 4 4 3 3
7 8 10 11 7 7 6 4 3 3 1 1 0 3 4 4 5 7 7 12 12 14 9 12 12 13 10 10 9 9 8 8 8 7 8 7 6 5 5 5 4 5 4 3
5 8 7 9 9 8 6 5 4 4 2 2 1 1 3 4 6 7 11 9 10 10 10 10 11 13 10 10 9 9 8 7 10 7 6 6 6 6 6 6 4 5 5 3
Wind_Direction
249 236 185 218 188 182 200 192 181 242 210 238 207 206 206 192 183 187 198 195 196 202 203 211 215 222 225 236 244 240 264 288 296 303 304 308 311 319 324 323 329 327 340 343
284 143 204 254 229 204 219 236 267 299 278 206 208 118 164 183 183 198 203 202 197 199 198 203 206 213 218 229 243 240 260 274 303 318 316 312 316 328 331 327 338 338 341 343
265 353 313 292 230 187 189 209 185 203 231 167 200 212 209 193 192 200 201 199 195 197 198 196 201 196 210 220 249 258 271 295 313 318 315 320 321 332 337 327 327 332 345 342
237 4 275 246 128 176 204 227 216 261 214 192 199 212 220 198 192 201 196 194 195 189 189 193 188 192 198 206 221 244 268 292 307 315 312 320 328 334 330 325 327 322 327 332
146 199 291 281 209 162 173 279 207 221 213 187 124 72 274 200 197 201 194 189 190 181 173 171 180 187 190 204 213 218 250 276 296 307 305 316 319 319 307 313 314 322 312 320
105 154 235 242 211 186 178 295 231 201 183 156 141 205 250 188 182 186 179 170 163 165 157 165 188 174 184 207 208 218 214 237 270 271 267 276 284 295 283 295 292 310 320 325
180 242 287 243 145 162 105 241 24 179 154 154 192 201 207 141 163 171 172 167 147 159 175 183 165 169 198 207 220 218 210 220 239 237 236 238 250 238 260 288 305 311 315 314
93 105 279 144 97 179 228 305 282 178 183 196 212 179 164 178 161 160 161 162 162 163 175 173 166 170 200 216 220 212 218 241 251 241 237 237 236 259 260 271 295 302 311 312
182 210 257 215 218 225 220 271 250 214 208 189 184 202 184 192 178 174 168 163 169 168 169 176 177 181 193 219 201 211 225 243 251 250 250 241 240 256 266 248 270 291 297 300
96 249 240 233 261 242 213 221 231 227 186 182 193 181 189 178 181 175 173 172 161 160 179 186 186 190 203 186 194 199 224 249 264 263 269 269 278 276 270 272 271 273 286 295
260 284 282 259 230 250 255 231 230 207 200 209 191 200 182 182 185 186 178 170 171 180 189 195 182 193 190 190 181 203 223 238 254 255 267 279 270 262 260 261 238 260 271 266
226 233 191 262 291 224 247 245 229 204 218 215 195 197 181 195 186 179 180 172 180 187 184 186 186 193 187 181 179 190 217 227 234 242 253 261 285 298 289 278 285 300 307 309
251 246 220 280 282 231 256 268 237 217 213 201 209 187 186 184 188 185 178 180 189 191 191 177 183 197 192 178 175 189 207 221 235 251 254 265 271 271 305 322 320 329 340 339
249 278 285 234 259 167 209 262 278 239 222 206 192 176 174 179 174 187 193 194 182 178 180 182 185 198 189 178 180 187 200 227 208 232 242 258 267 279 285 294 307 312 328 339
261 243 255 273 241 237 217 178 223 235 212 207 184 191 182 181 194 200 187 171 170 176 187 181 191 201 176 177 186 187 190 204 220 227 231 243 254 268 267 277 286 296 317 343
264 258 253 236 248 253 223 225 234 249 211 201 199 202 200 196 187 180 170 168 170 193 191 189 195 188 175 175 184 187 193 213 209 210 230 241 250 258 270 275 290 301 314 306
255 258 249 250 235 240 221 230 220 238 205 205 218 185 170 180 173 179 188 188 193 186 184 184 193 165 177 177 180 185 182 192 214 204 219 232 231 246 261 273 287 307 300 295
264 269 275 268 258 247 236 224 215 219 222 224 176 173 183 185 201 197 183 172 166 171 185 184 168 169 175 176 177 173 174 181 183 202 219 223 220 223 227 243 312 345 317 320
307 291 272 255 248 242 235 223 212 220 211 181 171 197 199 203 198 182 164 174 185 192 201 175 182 175 173 180 176 171 169 176 177 180 200 203 164 157 147 155 297 332 341 334
311 308 305 293 268 243 242 239 240 217 202 183 186 181 199 200 183 171 175 196 197 196 151 171 177 171 171 184 188 171 174 180 174 175 176 179 180 175 177 195 179 128 347 337
316 311 301 298 289 265 238 248 201 214 198 184 185 197 206 187 182 171 177 197 192 167 159 171 170 171 168 170 189 170 172 170 170 174 170 166 177 183 195 195 198 116 30 343
324 321 314 307 300 293 265 245 214 215 184 193 206 190 168 172 174 189 203 200 155 168 160 169 173 172 170 175 172 166 169 171 168 166 170 181 184 169 164 166 148 137 113 195
333 330 323 319 314 304 295 268 232 206 196 192 190 185 187 184 179 172 196 185 163 175 165 168 175 175 175 174 175 170 169 169 171 176 172 163 167 165 159 162 172 166 154 125
339 338 332 329 320 328 328 324 286 244 210 186 188 177 161 156 181 203 137 158 165 170 172 165 173 178 173 169 170 173 166 169 170 166 161 161 155 153 151 178 172 174 145 116
343 342 335 331 335 333 316 335 355 7 115 158 164 166 169 176 166 164 147 164 172 166 166 175 174 177 174 175 170 170 165 164 165 162 162 158 159 147 168 178 175 166 154 138
346 339 329 323 297 315 310 343 3 351 339 153 110 147 136 124 131 145 150 158 166 164 160 167 170 174 167 170 170 167 162 164 169 162 162 158 149 158 175 179 178 161 157 153
321 338 332 344 341 339 332 359 353 336 282 242 204 164 135 130 143 144 154 159 159 159 162 165 169 167 162 166 166 162 157 158 161 160 162 151 156 168 168 180 173 174 159 165